CW6012 Weather Reports


Display with metric or nautical units.
time (UTC)temp
F
wind
direction
speed
MPH
gust
MPH
rain 1hr
in
rain 24hr
in
rain mn
in
humidity
%
barometer
mb
20201125104932 67 350 3.0 11.0 0.00 0.03 0.03 82 1014.1
20201125104805 68 351 3.0 11.0 0.00 0.03 0.03 82 1014.1
20201125104651 68 323 3.0 10.0 0.00 0.03 0.03 82 1014.1
20201125104535 68 360 4.0 10.0 0.00 0.03 0.03 83 1014.1
20201125104404 69 342 3.0 14.0 0.01 0.03 0.03 84 1013.5
20201125104256 69 9 2.0 14.0 0.01 0.03 0.03 84 1013.5
20201125104109 69 314 3.0 14.0 0.03 0.03 0.03 84 1013.5
20201125103943 70 274 4.0 14.0 0.03 0.03 0.03 85 1013.5
20201125103818 70 312 2.0 14.0 0.03 0.03 0.03 86 1013.5
20201125103655 71 317 4.0 14.0 0.03 0.03 0.03 87 1013.5
20201125103528 71 304 5.0 13.0 0.03 0.03 0.03 90 1013.5
20201125103416 72 319 4.0 9.0 0.03 0.03 0.03 92 1013.5
20201125103251 72 319 3.0 8.0 0.03 0.03 0.03 92 1013.5
20201125103122 72 290 3.0 8.0 0.03 0.03 0.03 92 1013.5
20201125103017 72 246 2.0 5.0 0.03 0.03 0.03 92 1013.5
20201125102832 72 248 1.0 5.0 0.03 0.03 0.03 92 1013.4
20201125102706 72 229 2.0 5.0 0.03 0.03 0.03 92 1013.4
20201125102534 72 342 2.0 5.0 0.03 0.03 0.03 92 1013.4
20201125102409 72 275 3.0 5.0 0.03 0.03 0.03 92 1013.4
20201125102248 72 259 2.0 5.0 0.03 0.03 0.03 92 1013.4
20201125102123 72 219 2.0 4.0 0.03 0.03 0.03 92 1013.4
20201125101958 72 253 2.0 6.0 0.03 0.03 0.03 92 1013.4
20201125101828 72 248 1.0 7.0 0.03 0.03 0.03 92 1013.4
20201125101714 72 272 1.0 7.0 0.03 0.03 0.03 92 1013.4
20201125101549 72 288 2.0 7.0 0.03 0.03 0.03 92 1013.4
20201125101422 72 282 1.0 7.0 0.03 0.03 0.03 92 1013.2
20201125101256 72 287 2.0 7.0 0.03 0.03 0.03 92 1013.2
20201125101128 72 234 3.0 7.0 0.03 0.03 0.03 92 1013.2
20201125100949 72 227 2.0 7.0 0.03 0.03 0.03 92 1013.2
20201125100822 72 217 1.0 5.0 0.03 0.03 0.03 92 1013.2
20201125100700 72 236 1.0 5.0 0.03 0.03 0.03 92 1013.2
20201125100540 72 258 1.0 5.0 0.03 0.03 0.03 92 1013.2
20201125100408 72 232 2.0 5.0 0.03 0.03 0.03 92 1013.2
20201125100243 72 220 2.0 5.0 0.03 0.03 0.03 92 1013.2
20201125100106 72 249 2.0 5.0 0.03 0.03 0.03 92 1013.2
20201125095943 72 267 2.0 5.0 0.03 0.03 0.03 92 1013.2
20201125095830 72 254 1.0 3.0 0.03 0.03 0.03 92 1012.9
20201125095702 72 238 1.0 3.0 0.03 0.03 0.03 92 1012.9
20201125095539 72 275 1.0 4.0 0.03 0.03 0.03 92 1012.9
20201125095357 72 273 1.0 4.0 0.03 0.03 0.03 91 1012.9
20201125095230 72 225 1.0 4.0 0.03 0.03 0.03 91 1012.9
20201125095108 72 251 1.0 4.0 0.03 0.03 0.03 91 1012.9
20201125094934 72 243 1.0 4.0 0.03 0.03 0.03 91 1012.9
20201125094809 72 211 0.0 4.0 0.03 0.03 0.03 91 1012.9
20201125094654 72 222 1.0 4.0 0.03 0.03 0.03 91 1012.9
20201125094520 72 219 1.0 4.0 0.03 0.03 0.03 91 1012.9
20201125094355 72 225 1.0 4.0 0.02 0.02 0.02 91 1012.7
20201125094234 72 254 1.0 4.0 0.00 0.00 0.00 91 1012.7
20201125094106 72 265 2.0 4.0 0.00 0.00 0.00 91 1012.7
20201125093943 72 262 2.0 3.0 0.00 0.00 0.00 91 1012.7
20201125093804 72 271 1.0 3.0 0.00 0.00 0.00 91 1012.7
20201125093647 72 229 0.0 4.0 0.00 0.00 0.00 91 1012.7
20201125093516 72 229 0.0 6.0 0.00 0.00 0.00 90 1012.7
20201125093351 72 229 0.0 6.0 0.00 0.00 0.00 90 1012.7
20201125093228 72 229 1.0 6.0 0.00 0.00 0.00 90 1012.7
20201125093053 72 238 1.0 6.0 0.00 0.00 0.00 90 1012.7
20201125092925 72 242 1.0 6.0 0.00 0.00 0.00 90 1012.4
20201125092806 72 242 2.0 6.0 0.00 0.00 0.00 90 1012.4
20201125092657 73 242 2.0 6.0 0.00 0.00 0.00 90 1012.4
20201125092534 73 234 2.0 6.0 0.00 0.00 0.00 90 1012.4
20201125092419 72 246 1.0 6.0 0.00 0.00 0.00 90 1012.4
20201125092248 73 258 1.0 6.0 0.00 0.00 0.00 90 1012.4
20201125092133 73 269 0.0 6.0 0.00 0.00 0.00 90 1012.4
20201125092001 73 232 1.0 10.0 0.00 0.00 0.00 90 1012.4
20201125091841 72 292 1.0 10.0 0.00 0.00 0.00 90 1012.4
20201125091710 73 234 1.0 10.0 0.00 0.00 0.00 90 1012.4
20201125091554 72 227 2.0 10.0 0.00 0.00 0.00 90 1012.4
20201125091416 72 250 3.0 10.0 0.00 0.00 0.00 91 1011.9
20201125091245 72 235 2.0 10.0 0.00 0.00 0.00 91 1011.9
20201125091123 72 242 1.0 4.0 0.00 0.00 0.00 90 1011.9
20201125091001 72 222 1.0 4.0 0.00 0.00 0.00 90 1011.9
20201125090817 72 254 1.0 4.0 0.00 0.00 0.00 90 1011.9
20201125090654 72 239 0.0 4.0 0.00 0.00 0.00 90 1011.9
20201125090525 72 240 0.0 4.0 0.00 0.00 0.00 90 1011.9
20201125090404 72 244 0.0 4.0 0.00 0.00 0.00 91 1011.9
20201125090239 72 244 1.0 4.0 0.00 0.00 0.00 91 1011.9
20201125090123 72 236 2.0 4.0 0.00 0.00 0.00 91 1011.9
20201125090000 72 242 1.0 4.0 0.00 0.00 0.00 91 1011.9
20201125085838 72 243 1.0 4.0 0.00 0.00 0.00 91 1011.6
20201125085712 72 244 1.0 4.0 0.00 0.00 0.00 91 1011.6
20201125085531 72 257 0.0 3.0 0.00 0.00 0.00 91 1011.6
20201125085345 72 228 1.0 3.0 0.00 0.00 0.00 91 1011.6
20201125085220 72 217 0.0 4.0 0.00 0.00 0.00 91 1011.6
20201125085103 72 219 0.0 4.0 0.00 0.00 0.00 91 1011.6
20201125084945 72 254 1.0 4.0 0.00 0.00 0.00 91 1011.6
20201125084810 72 257 1.0 4.0 0.00 0.00 0.00 91 1011.6
20201125084644 72 262 0.0 4.0 0.00 0.00 0.00 91 1011.6
20201125084510 72 248 1.0 4.0 0.00 0.00 0.00 91 1011.6
20201125084338 72 245 1.0 3.0 0.00 0.00 0.00 91 1011.4
20201125084218 72 244 1.0 3.0 0.00 0.00 0.00 91 1011.4
20201125084055 72 256 0.0 3.0 0.00 0.00 0.00 91 1011.4
20201125083930 72 240 1.0 3.0 0.00 0.00 0.00 91 1011.4
20201125083742 72 231 0.0 2.0 0.00 0.00 0.00 91 1011.4
20201125083615 72 236 0.0 2.0 0.00 0.00 0.00 91 1011.4
20201125083453 72 236 0.0 2.0 0.00 0.00 0.00 91 1011.4
20201125083326 72 236 0.0 2.0 0.00 0.00 0.00 91 1011.4
20201125083215 72 236 0.0 2.0 0.00 0.00 0.00 91 1011.4
20201125083100 72 226 0.0 2.0 0.00 0.00 0.00 91 1011.4
20201125082915 72 226 0.0 2.0 0.00 0.00 0.00 91 1011.5
20201125082745 72 226 0.0 2.0 0.00 0.00 0.00 91 1011.5
20201125082617 72 197 0.0 2.0 0.00 0.00 0.00 91 1011.5
20201125082450 72 196 0.0 2.0 0.00 0.00 0.00 91 1011.5
20201125082314 72 238 0.0 1.0 0.00 0.00 0.00 91 1011.5
20201125082154 72 238 0.0 1.0 0.00 0.00 0.00 91 1011.5
20201125082031 72 238 0.0 1.0 0.00 0.00 0.00 91 1011.5
20201125081906 72 238 0.0 1.0 0.00 0.00 0.00 91 1011.5
20201125081742 72 238 0.0 3.0 0.00 0.00 0.00 91 1011.5
20201125081620 72 238 0.0 3.0 0.00 0.00 0.00 91 1011.5
20201125081444 72 238 0.0 3.0 0.00 0.00 0.00 91 1011.5
20201125081325 72 238 0.0 3.0 0.00 0.00 0.00 91 1011.4
20201125081205 72 238 0.0 3.0 0.00 0.00 0.00 91 1011.4
20201125081042 72 238 1.0 3.0 0.00 0.00 0.00 91 1011.4
20201125080919 72 238 1.0 3.0 0.00 0.00 0.00 90 1011.4
20201125080804 71 220 0.0 1.0 0.00 0.00 0.00 90 1011.4
20201125080620 72 220 0.0 1.0 0.00 0.00 0.00 91 1011.4
20201125080452 72 220 0.0 1.0 0.00 0.00 0.00 91 1011.4
20201125080332 72 220 0.0 1.0 0.00 0.00 0.00 90 1011.4
20201125080209 72 220 0.0 1.0 0.00 0.00 0.00 90 1011.4
20201125080044 72 220 0.0 1.0 0.00 0.00 0.00 90 1011.4
20201125075935 72 220 0.0 1.0 0.00 0.00 0.00 90 1011.4
20201125075829 72 220 0.0 3.0 0.00 0.00 0.00 90 1011.3
20201125075737 71 220 0.0 3.0 0.00 0.00 0.00 90 1011.3
20201125075615 72 220 0.0 3.0 0.00 0.00 0.00 90 1011.3
20201125075533 72 220 0.0 3.0 0.00 0.00 0.00 90 1011.3
20201125075447 72 220 0.0 3.0 0.00 0.00 0.00 90 1011.3
20201125075317 72 220 0.0 3.0 0.00 0.00 0.00 90 1011.3
20201125075232 72 220 0.0 3.0 0.00 0.00 0.00 90 1011.3
20201125075138 72 219 1.0 3.0 0.00 0.00 0.00 90 1011.3
20201125075030 72 219 1.0 3.0 0.00 0.00 0.00 90 1011.3
20201125074939 72 258 0.0 2.0 0.00 0.00 0.00 90 1011.3
20201125074838 72 258 0.0 3.0 0.00 0.00 0.00 90 1011.3
20201125074728 72 258 0.0 3.0 0.00 0.00 0.00 90 1011.3
20201125074625 72 259 0.0 3.0 0.00 0.00 0.00 90 1011.3
20201125074533 72 248 0.0 3.0 0.00 0.00 0.00 90 1011.3
20201125074428 72 248 0.0 3.0 0.00 0.00 0.00 90 1010.9
20201125074340 72 248 0.0 3.0 0.00 0.00 0.00 90 1010.9
20201125074220 72 248 0.0 3.0 0.00 0.00 0.00 90 1010.9
20201125074137 72 248 1.0 3.0 0.00 0.00 0.00 90 1010.9
20201125074042 72 243 0.0 3.0 0.00 0.00 0.00 90 1010.9
20201125073934 72 255 0.0 3.0 0.00 0.00 0.00 90 1010.9
20201125073827 72 261 0.0 3.0 0.00 0.00 0.00 90 1010.9
20201125073737 72 261 0.0 3.0 0.00 0.00 0.00 90 1010.9
20201125073633 72 150 0.0 3.0 0.00 0.00 0.00 90 1010.9
20201125073524 72 150 0.0 3.0 0.00 0.00 0.00 90 1010.9
20201125073431 72 150 0.0 3.0 0.00 0.00 0.00 90 1010.9
20201125073325 72 238 0.0 3.0 0.00 0.00 0.00 90 1010.9
20201125073219 72 238 0.0 3.0 0.00 0.00 0.00 90 1010.9
20201125073130 72 238 1.0 3.0 0.00 0.00 0.00 90 1010.9
20201125073023 72 238 1.0 3.0 0.00 0.00 0.00 90 1010.9
20201125072920 72 236 0.0 3.0 0.00 0.00 0.00 90 1010.8
20201125072827 72 225 0.0 3.0 0.00 0.00 0.00 90 1010.8
20201125072724 72 225 1.0 3.0 0.00 0.00 0.00 90 1010.8
20201125072621 72 252 1.0 3.0 0.00 0.00 0.00 90 1010.8
20201125072525 72 200 1.0 3.0 0.00 0.00 0.00 90 1010.8
20201125072420 72 136 1.0 3.0 0.00 0.00 0.00 90 1010.8
20201125072322 72 256 1.0 3.0 0.00 0.00 0.00 90 1010.8
20201125072229 72 224 1.0 3.0 0.00 0.00 0.00 90 1010.8
20201125072127 72 192 1.0 3.0 0.00 0.00 0.00 89 1010.8
20201125072026 72 189 0.0 3.0 0.00 0.00 0.00 89 1010.8
20201125071931 72 225 1.0 3.0 0.00 0.00 0.00 89 1010.8
20201125071835 72 130 0.0 3.0 0.00 0.00 0.00 89 1010.8
20201125071729 72 249 0.0 3.0 0.00 0.00 0.00 89 1010.8
20201125071642 72 249 0.0 3.0 0.00 0.00 0.00 89 1010.8
20201125071518 72 257 0.0 3.0 0.00 0.00 0.00 89 1010.8
20201125071432 72 261 0.0 3.0 0.00 0.00 0.00 89 1010.8
20201125071350 72 194 1.0 3.0 0.00 0.00 0.00 89 1010.7
20201125071217 72 194 1.0 3.0 0.00 0.00 0.00 89 1010.7
20201125071135 72 231 0.0 7.0 0.00 0.00 0.00 89 1010.7
20201125071030 72 217 0.0 7.0 0.00 0.00 0.00 89 1010.7
20201125070918 72 219 0.0 7.0 0.00 0.00 0.00 89 1010.7
20201125070846 72 283 0.0 7.0 0.00 0.00 0.00 89 1010.7
20201125070723 72 107 0.0 7.0 0.00 0.00 0.00 89 1010.7
20201125070637 72 107 0.0 7.0 0.00 0.00 0.00 89 1010.7
20201125070606 72 107 0.0 7.0 0.00 0.00 0.00 89 1010.7
20201125070420 72 97 1.0 7.0 0.00 0.00 0.00 89 1010.7
20201125070319 72 140 1.0 5.0 0.00 0.00 0.00 89 1010.7
20201125070246 72 173 0.0 4.0 0.00 0.00 0.00 89 1010.7
20201125070121 72 244 1.0 4.0 0.00 0.00 0.00 89 1010.7
20201125070040 72 244 1.0 4.0 0.00 0.00 0.00 89 1010.7
20201125065939 72 248 1.0 4.0 0.00 0.00 0.00 89 1010.7
20201125065834 72 244 0.0 4.0 0.00 0.00 0.00 89 1010.6
20201125065713 72 225 1.0 4.0 0.00 0.00 0.00 89 1010.6
20201125065647 72 227 1.0 4.0 0.00 0.00 0.00 89 1010.6
20201125065526 72 183 1.0 4.0 0.00 0.00 0.00 89 1010.6
20201125065436 72 189 1.0 4.0 0.00 0.00 0.00 89 1010.6
20201125065343 72 240 1.0 4.0 0.00 0.00 0.00 89 1010.6
20201125065222 72 134 0.0 4.0 0.00 0.00 0.00 89 1010.6
20201125065122 72 193 1.0 4.0 0.00 0.00 0.00 89 1010.6
20201125065048 72 196 1.0 4.0 0.00 0.00 0.00 89 1010.6
20201125064921 72 146 1.0 4.0 0.00 0.00 0.00 89 1010.6
20201125064814 72 149 1.0 4.0 0.00 0.00 0.00 89 1010.6
20201125064755 72 149 1.0 4.0 0.00 0.00 0.00 89 1010.6
20201125064622 72 150 0.0 4.0 0.00 0.00 0.00 89 1010.6
20201125064522 72 150 0.0 4.0 0.00 0.00 0.00 89 1010.6
20201125064422 72 140 0.0 4.0 0.00 0.00 0.00 89 1010.5
20201125064331 72 171 1.0 4.0 0.00 0.00 0.00 89 1010.5
20201125064230 72 171 1.0 4.0 0.00 0.00 0.00 89 1010.5
20201125064126 72 128 0.0 4.0 0.00 0.00 0.00 89 1010.5
20201125064038 72 109 0.0 4.0 0.00 0.00 0.00 89 1010.5
20201125063934 72 109 1.0 4.0 0.00 0.00 0.00 89 1010.5
20201125063847 72 108 1.0 4.0 0.00 0.00 0.00 89 1010.5
20201125063748 72 104 1.0 4.0 0.00 0.00 0.00 89 1010.5
20201125063622 72 161 1.0 3.0 0.00 0.00 0.00 89 1010.5
20201125063525 72 154 1.0 3.0 0.00 0.00 0.00 89 1010.5
20201125063450 72 258 1.0 3.0 0.00 0.00 0.00 89 1010.5
20201125063324 72 261 0.0 5.0 0.00 0.00 0.00 89 1010.5
20201125063226 72 106 1.0 7.0 0.00 0.00 0.00 89 1010.5
20201125063133 72 110 1.0 7.0 0.00 0.00 0.00 89 1010.5
20201125063027 72 142 1.0 7.0 0.00 0.00 0.00 88 1010.5
20201125062924 72 194 1.0 7.0 0.00 0.00 0.00 89 1010.4
20201125062836 72 159 1.0 7.0 0.00 0.00 0.00 89 1010.4
20201125062730 73 170 1.0 7.0 0.00 0.00 0.00 89 1010.4
20201125062628 72 161 1.0 7.0 0.00 0.00 0.00 89 1010.4
20201125062545 72 118 1.0 7.0 0.00 0.00 0.00 89 1010.4
20201125062420 72 306 1.0 7.0 0.00 0.00 0.00 88 1010.4
20201125062333 72 159 0.0 4.0 0.00 0.00 0.00 88 1010.4
20201125062241 73 163 1.0 4.0 0.00 0.00 0.00 88 1010.4
20201125062117 73 232 1.0 6.0 0.00 0.00 0.00 88 1010.4
20201125062032 72 163 0.0 6.0 0.00 0.00 0.00 88 1010.4
20201125061943 73 163 0.0 6.0 0.00 0.00 0.00 88 1010.4
20201125061817 72 173 1.0 6.0 0.00 0.00 0.00 88 1010.4
20201125061730 73 173 1.0 6.0 0.00 0.00 0.00 88 1010.4
20201125061636 72 128 1.0 6.0 0.00 0.00 0.00 88 1010.4
20201125061533 72 149 1.0 6.0 0.00 0.00 0.00 88 1010.4
20201125061428 72 134 1.0 6.0 0.00 0.00 0.00 88 1010.5
20201125061335 72 174 1.0 6.0 0.00 0.00 0.00 88 1010.5
20201125061232 72 119 1.0 4.0 0.00 0.00 0.00 88 1010.5
20201125061126 73 153 1.0 4.0 0.00 0.00 0.00 88 1010.5
20201125061034 73 144 1.0 4.0 0.00 0.00 0.00 88 1010.5
20201125060930 73 196 1.0 4.0 0.00 0.00 0.00 88 1010.5
20201125060829 73 30 1.0 4.0 0.00 0.00 0.00 88 1010.5
20201125060734 72 142 1.0 4.0 0.00 0.00 0.00 88 1010.5
20201125060630 73 161 1.0 4.0 0.00 0.00 0.00 88 1010.5
20201125060522 73 121 1.0 4.0 0.00 0.00 0.00 88 1010.5
20201125060428 72 209 1.0 4.0 0.00 0.00 0.00 88 1010.5
20201125060323 72 155 1.0 4.0 0.00 0.00 0.00 88 1010.5
20201125060220 72 195 1.0 4.0 0.00 0.00 0.00 88 1010.5
20201125060127 72 133 1.0 4.0 0.00 0.00 0.00 88 1010.5
20201125060049 72 178 1.0 4.0 0.00 0.00 0.00 88 1010.5
20201125060032 72 222 1.0 5.0 0.00 0.00 0.00 88 1010.5
20201125055848 72 163 1.0 5.0 0.00 0.00 0.00 88 1010.8
20201125055726 72 128 1.0 5.0 0.00 0.00 0.00 88 1010.8
20201125055558 72 122 1.0 5.0 0.00 0.00 0.00 88 1010.8
20201125055434 72 132 1.0 6.0 0.00 0.00 0.00 88 1010.8
20201125055307 72 193 1.0 6.0 0.00 0.00 0.00 88 1010.8
20201125055149 72 193 1.0 6.0 0.00 0.00 0.00 88 1010.8
20201125055029 72 159 1.0 6.0 0.00 0.00 0.00 88 1010.8
20201125054908 72 154 1.0 6.0 0.00 0.00 0.00 88 1010.8
20201125054751 72 136 1.0 6.0 0.00 0.00 0.00 88 1010.8
20201125054631 72 239 1.0 6.0 0.00 0.00 0.00 88 1010.8
20201125054519 72 160 0.0 4.0 0.00 0.00 0.00 88 1010.8
20201125054329 72 160 1.0 4.0 0.00 0.00 0.00 88 1010.8
20201125054156 72 157 1.0 4.0 0.00 0.00 0.00 88 1010.8
20201125054038 72 257 1.0 4.0 0.00 0.00 0.00 88 1010.8
20201125053913 72 185 1.0 4.0 0.00 0.00 0.00 88 1010.8
20201125053733 72 167 1.0 4.0 0.00 0.00 0.00 88 1010.8
20201125053607 72 175 0.0 4.0 0.00 0.00 0.00 88 1010.8
20201125053442 72 153 0.0 4.0 0.00 0.00 0.00 88 1010.8
20201125053318 72 153 1.0 4.0 0.00 0.00 0.00 88 1010.8
20201125053155 72 169 1.0 4.0 0.00 0.00 0.00 88 1010.8
20201125053021 72 116 1.0 7.0 0.00 0.00 0.00 88 1010.8
20201125052901 72 126 1.0 7.0 0.00 0.00 0.00 88 1010.8
20201125052736 72 175 0.0 7.0 0.00 0.00 0.00 88 1010.8
20201125052604 72 178 1.0 7.0 0.00 0.00 0.00 88 1010.8
20201125052437 72 142 1.0 7.0 0.00 0.00 0.00 88 1010.8
20201125052307 72 130 1.0 7.0 0.00 0.00 0.00 88 1010.8
20201125052135 72 131 1.0 4.0 0.00 0.00 0.00 88 1010.8
20201125052022 72 140 1.0 4.0 0.00 0.00 0.00 88 1010.8
20201125051858 72 140 1.0 4.0 0.00 0.00 0.00 88 1010.8
20201125051725 72 126 1.0 4.0 0.00 0.00 0.00 88 1010.8
20201125051604 72 128 1.0 4.0 0.00 0.00 0.00 88 1010.8
20201125051443 72 95 1.0 4.0 0.00 0.00 0.00 88 1010.8
20201125051305 72 124 1.0 3.0 0.00 0.00 0.00 88 1010.9
20201125051137 72 125 1.0 3.0 0.00 0.00 0.00 88 1010.9
20201125051015 72 109 1.0 3.0 0.00 0.00 0.00 88 1010.9
20201125050841 72 150 1.0 2.0 0.00 0.00 0.00 88 1010.9
20201125050709 72 212 0.0 3.0 0.00 0.00 0.00 88 1010.9
20201125050551 72 136 0.0 3.0 0.00 0.00 0.00 88 1010.9
20201125050419 72 156 0.0 3.0 0.00 0.00 0.00 88 1010.9
20201125050301 72 164 1.0 3.0 0.00 0.00 0.00 88 1010.9
20201125050131 72 135 1.0 3.0 0.00 0.00 0.00 88 1010.9
20201125050007 72 161 1.0 3.0 0.00 0.00 0.00 88 1010.9
20201125045834 72 148 1.0 2.0 0.00 0.00 0.00 88 1011.4
20201125045711 73 123 0.0 2.0 0.00 0.00 0.00 88 1011.4
20201125045547 72 119 0.0 2.0 0.00 0.00 0.00 88 1011.4
20201125045417 73 105 1.0 2.0 0.00 0.00 0.00 88 1011.4
20201125045307 73 137 1.0 2.0 0.00 0.00 0.00 88 1011.4
20201125045139 73 115 0.0 2.0 0.00 0.00 0.00 88 1011.4
20201125045018 73 138 1.0 2.0 0.00 0.00 0.00 88 1011.4
20201125044832 73 138 0.0 2.0 0.00 0.00 0.00 87 1011.4
20201125044707 73 152 0.0 3.0 0.00 0.00 0.00 87 1011.4
20201125044557 73 152 0.0 3.0 0.00 0.00 0.00 87 1011.4
20201125044424 73 153 0.0 3.0 0.00 0.00 0.00 87 1011.7
20201125044250 73 153 0.0 3.0 0.00 0.00 0.00 87 1011.7
20201125044121 73 153 0.0 3.0 0.00 0.00 0.00 87 1011.7
20201125044000 73 153 1.0 3.0 0.00 0.00 0.00 87 1011.7
20201125043834 73 153 1.0 3.0 0.00 0.00 0.00 87 1011.7
20201125043703 73 168 0.0 3.0 0.00 0.00 0.00 87 1011.7
20201125043520 73 139 0.0 4.0 0.00 0.00 0.00 87 1011.7
20201125043351 73 139 0.0 4.0 0.00 0.00 0.00 87 1011.7
20201125043217 73 139 1.0 4.0 0.00 0.00 0.00 87 1011.7
20201125043039 73 139 1.0 4.0 0.00 0.00 0.00 87 1011.7
20201125042921 73 170 0.0 4.0 0.00 0.00 0.00 87 1011.8
20201125042753 73 186 1.0 4.0 0.00 0.00 0.00 87 1011.8
20201125042626 73 126 1.0 2.0 0.00 0.00 0.00 87 1011.8
20201125042454 73 107 0.0 2.0 0.00 0.00 0.00 87 1011.8
20201125042312 73 129 0.0 2.0 0.00 0.00 0.00 87 1011.8
20201125042148 73 129 0.0 2.0 0.00 0.00 0.00 87 1011.8
20201125042025 73 129 0.0 2.0 0.00 0.00 0.00 87 1011.8
20201125041912 73 186 0.0 2.0 0.00 0.00 0.00 87 1011.8
20201125041737 73 155 0.0 2.0 0.00 0.00 0.00 87 1011.8
20201125041559 73 130 0.0 3.0 0.00 0.00 0.00 87 1011.8
20201125041431 73 131 0.0 3.0 0.00 0.00 0.00 87 1011.9
20201125041306 73 210 0.0 3.0 0.00 0.00 0.00 87 1011.9
20201125041135 73 192 0.0 3.0 0.00 0.00 0.00 86 1011.9
20201125041022 73 192 0.0 3.0 0.00 0.00 0.00 87 1011.9
20201125040837 73 240 0.0 3.0 0.00 0.00 0.00 86 1011.9
20201125040706 73 267 0.0 2.0 0.00 0.00 0.00 87 1011.9
20201125040550 73 85 0.0 2.0 0.00 0.00 0.00 86 1011.9
20201125040432 73 56 0.0 2.0 0.00 0.00 0.00 86 1011.9
20201125040302 73 237 0.0 2.0 0.00 0.00 0.00 86 1011.9
20201125040141 73 123 0.0 2.0 0.00 0.00 0.00 86 1011.9
20201125040019 73 259 0.0 2.0 0.00 0.00 0.00 86 1011.9
20201125035843 73 259 0.0 2.0 0.00 0.00 0.00 86 1011.9
20201125035717 73 261 0.0 2.0 0.00 0.00 0.00 86 1011.9
20201125035551 73 257 0.0 2.0 0.00 0.00 0.00 86 1011.9
20201125035416 73 146 0.0 1.0 0.00 0.00 0.00 86 1011.9
20201125035301 73 161 0.0 1.0 0.00 0.00 0.00 86 1011.9
20201125035135 73 161 0.0 1.0 0.00 0.00 0.00 86 1011.9
20201125035011 73 101 0.0 1.0 0.00 0.00 0.00 86 1011.9
20201125034844 73 183 0.0 1.0 0.00 0.00 0.00 86 1011.9
20201125034703 73 182 0.0 1.0 0.00 0.00 0.00 86 1011.9
20201125034544 73 184 0.0 1.0 0.00 0.00 0.00 86 1011.9
20201125034409 73 221 0.0 1.0 0.00 0.00 0.00 86 1011.9
20201125034242 73 221 0.0 1.0 0.00 0.00 0.00 86 1011.9
20201125034125 73 221 0.0 1.0 0.00 0.00 0.00 86 1011.9
20201125033949 73 221 0.0 1.0 0.00 0.00 0.00 86 1011.9
20201125033826 73 221 0.0 2.0 0.00 0.00 0.00 86 1011.9
20201125033654 73 221 0.0 2.0 0.00 0.00 0.00 86 1011.9
20201125033537 73 221 0.0 2.0 0.00 0.00 0.00 86 1011.9
20201125033413 73 221 0.0 2.0 0.00 0.00 0.00 86 1011.9
20201125033234 73 222 0.0 2.0 0.00 0.00 0.00 86 1011.9
20201125033108 73 221 0.0 2.0 0.00 0.00 0.00 86 1011.9
20201125032937 73 135 0.0 2.0 0.00 0.00 0.00 86 1011.9
20201125032819 73 135 0.0 2.0 0.00 0.00 0.00 86 1011.8
20201125032652 73 178 0.0 1.0 0.00 0.00 0.00 86 1011.8
20201125032520 73 225 0.0 2.0 0.00 0.00 0.00 86 1011.8
20201125032357 73 225 0.0 3.0 0.00 0.00 0.00 85 1011.8
20201125032232 73 130 0.0 3.0 0.00 0.00 0.00 85 1011.8
20201125032112 73 130 0.0 3.0 0.00 0.00 0.00 85 1011.8
20201125031943 73 130 0.0 3.0 0.00 0.00 0.00 85 1011.8
20201125031800 73 250 0.0 3.0 0.00 0.00 0.00 85 1011.8
20201125031648 73 103 0.0 3.0 0.00 0.00 0.00 85 1011.8
20201125031523 73 115 0.0 2.0 0.00 0.00 0.00 85 1011.8
20201125031356 73 116 0.0 2.0 0.00 0.00 0.00 85 1011.5
20201125031238 73 107 0.0 2.0 0.00 0.00 0.00 85 1011.5
20201125031102 73 135 0.0 1.0 0.00 0.00 0.00 85 1011.5
20201125030940 73 179 0.0 1.0 0.00 0.00 0.00 85 1011.5
20201125030805 73 179 0.0 1.0 0.00 0.00 0.00 85 1011.5
20201125030642 73 179 0.0 1.0 0.00 0.00 0.00 85 1011.5
20201125030513 73 145 0.0 1.0 0.00 0.00 0.00 85 1011.5
20201125030339 73 207 0.0 2.0 0.00 0.00 0.00 85 1011.5
20201125030215 74 188 0.0 5.0 0.00 0.00 0.00 85 1011.5
20201125030059 74 188 0.0 5.0 0.00 0.00 0.00 85 1011.5
20201125025931 73 188 0.0 5.0 0.00 0.00 0.00 85 1011.3
20201125025810 74 188 0.0 5.0 0.00 0.00 0.00 85 1011.3
20201125025637 73 188 0.0 5.0 0.00 0.00 0.00 85 1011.3
20201125025522 74 240 0.0 5.0 0.00 0.00 0.00 85 1011.3
20201125025353 73 119 0.0 2.0 0.00 0.00 0.00 85 1011.3
20201125025228 74 121 0.0 2.0 0.00 0.00 0.00 85 1011.3
20201125025105 74 122 0.0 2.0 0.00 0.00 0.00 85 1011.3
20201125024952 74 121 1.0 5.0 0.00 0.00 0.00 85 1011.3
20201125024808 74 205 0.0 5.0 0.00 0.00 0.00 85 1011.3
20201125024645 74 248 0.0 5.0 0.00 0.00 0.00 85 1011.3
20201125024530 74 139 0.0 5.0 0.00 0.00 0.00 85 1011.3
20201125024400 74 147 0.0 5.0 0.00 0.00 0.00 85 1011.3
20201125024238 74 147 1.0 5.0 0.00 0.00 0.00 85 1011.3
20201125024121 74 113 0.0 3.0 0.00 0.00 0.00 85 1011.3
20201125024004 74 111 0.0 3.0 0.00 0.00 0.00 85 1011.3
20201125023821 74 111 0.0 3.0 0.00 0.00 0.00 85 1011.3
20201125023655 74 111 0.0 3.0 0.00 0.00 0.00 85 1011.3
20201125023531 74 107 1.0 3.0 0.00 0.00 0.00 85 1011.3
20201125023411 74 137 0.0 3.0 0.00 0.00 0.00 85 1011.3
20201125023247 74 135 0.0 4.0 0.00 0.00 0.00 85 1011.3
20201125023114 74 150 0.0 4.0 0.00 0.00 0.00 85 1011.3
20201125022946 74 152 0.0 4.0 0.00 0.00 0.00 85 1011.3
20201125022818 74 162 0.0 4.0 0.00 0.00 0.00 85 1011.2
20201125022653 74 162 0.0 4.0 0.00 0.00 0.00 85 1011.2
20201125022527 74 163 1.0 4.0 0.00 0.00 0.00 85 1011.2
20201125022413 73 134 0.0 3.0 0.00 0.00 0.00 85 1011.2
20201125022239 73 134 0.0 3.0 0.00 0.00 0.00 84 1011.2
20201125022110 73 134 0.0 3.0 0.00 0.00 0.00 84 1011.2
20201125021944 74 217 0.0 3.0 0.00 0.00 0.00 84 1011.2
20201125021822 74 154 0.0 3.0 0.00 0.00 0.00 84 1011.2
20201125021637 73 126 0.0 3.0 0.00 0.00 0.00 84 1011.2
20201125021522 73 126 0.0 3.0 0.00 0.00 0.00 84 1011.2
20201125021334 73 157 0.0 3.0 0.00 0.00 0.00 84 1010.9
20201125021209 74 204 0.0 3.0 0.00 0.00 0.00 84 1010.9
20201125021035 73 142 0.0 3.0 0.00 0.00 0.00 84 1010.9
20201125020907 73 124 0.0 3.0 0.00 0.00 0.00 84 1010.9
20201125020752 73 103 0.0 3.0 0.00 0.00 0.00 84 1010.9
20201125020619 73 124 0.0 3.0 0.00 0.00 0.00 84 1010.9
20201125020447 73 145 1.0 3.0 0.00 0.00 0.00 84 1010.9
20201125020324 73 145 1.0 3.0 0.00 0.00 0.00 84 1010.9
20201125020148 73 121 0.0 4.0 0.00 0.00 0.00 84 1010.9
20201125020028 73 121 0.0 4.0 0.00 0.00 0.00 84 1010.9
20201125015858 73 106 0.0 4.0 0.00 0.00 0.00 84 1010.8
20201125015738 73 95 0.0 4.0 0.00 0.00 0.00 84 1010.8
20201125015602 73 275 0.0 4.0 0.00 0.00 0.00 84 1010.8
20201125015438 73 236 1.0 4.0 0.00 0.00 0.00 84 1010.8
20201125015314 73 135 0.0 2.0 0.00 0.00 0.00 84 1010.8
20201125015020 73 131 0.0 3.0 0.00 0.00 0.00 84 1010.8
20201125014828 73 166 0.0 3.0 0.00 0.00 0.00 84 1010.8
20201124232308 76 109 1.0 3.0 0.00 0.00 0.00 76 1009.8
20201124231443 76 115 1.0 4.0 0.00 0.00 0.00 75 1009.8
20201124230330 76 201 1.0 4.0 0.00 0.00 0.00 75 1009.8
20201124230217 76 140 2.0 4.0 0.00 0.00 0.00 75 1009.8
20201124230101 76 200 2.0 4.0 0.00 0.00 0.00 76 1009.8
20201124225909 76 134 1.0 3.0 0.00 0.00 0.00 77 1009.9
20201124225759 76 155 1.0 3.0 0.00 0.00 0.00 77 1009.9
20201124225645 76 177 1.0 3.0 0.00 0.00 0.00 77 1009.9
20201124225515 76 147 0.0 3.0 0.00 0.00 0.00 78 1009.9
20201124225338 76 144 0.0 3.0 0.00 0.00 0.00 78 1009.9
20201124225214 76 121 0.0 3.0 0.00 0.00 0.00 78 1009.9
20201124225047 76 121 1.0 3.0 0.00 0.00 0.00 79 1009.9
20201124224912 76 185 0.0 1.0 0.00 0.00 0.00 79 1009.9
20201124224759 76 185 0.0 1.0 0.00 0.00 0.00 79 1009.9
20201124224623 76 107 0.0 1.0 0.00 0.00 0.00 79 1009.9
20201124224459 76 107 0.0 1.0 0.00 0.00 0.00 79 1009.9
20201124224336 76 107 0.0 2.0 0.00 0.00 0.00 79 1009.8
20201124224216 76 107 0.0 2.0 0.00 0.00 0.00 79 1009.8
20201124224051 76 107 0.0 2.0 0.00 0.00 0.00 79 1009.8
20201124223928 76 107 0.0 2.0 0.00 0.00 0.00 79 1009.8
20201124223757 76 107 0.0 2.0 0.00 0.00 0.00 78 1009.8
20201124223629 76 107 0.0 2.0 0.00 0.00 0.00 78 1009.8
20201124223507 76 201 0.0 1.0 0.00 0.00 0.00 78 1009.8
20201124223336 77 201 0.0 1.0 0.00 0.00 0.00 78 1009.8
20201124223217 76 211 0.0 1.0 0.00 0.00 0.00 79 1009.8
20201124223051 76 212 0.0 1.0 0.00 0.00 0.00 79 1009.8
20201124222920 76 212 0.0 1.0 0.00 0.00 0.00 79 1009.8
20201124222756 76 212 0.0 3.0 0.00 0.00 0.00 79 1009.8
20201124222633 76 212 0.0 4.0 0.00 0.00 0.00 79 1009.8
20201124222508 76 212 0.0 4.0 0.00 0.00 0.00 80 1009.8
20201124222341 76 226 0.0 4.0 0.00 0.00 0.00 80 1009.8
20201124222156 76 226 0.0 4.0 0.00 0.00 0.00 80 1009.8
20201124222029 75 238 0.0 4.0 0.00 0.00 0.00 81 1009.8
20201124221907 75 238 0.0 4.0 0.00 0.00 0.00 81 1009.8
20201124221744 75 238 0.0 2.0 0.00 0.00 0.00 81 1009.8
20201124221611 75 234 0.0 2.0 0.00 0.00 0.00 81 1009.8
20201124221445 75 144 0.0 2.0 0.00 0.00 0.00 81 1009.8
20201124221324 75 144 0.0 3.0 0.00 0.00 0.00 81 1009.8
20201124221201 75 126 0.0 3.0 0.00 0.00 0.00 80 1009.8
20201124221040 75 134 0.0 3.0 0.00 0.00 0.00 81 1009.8
20201124220913 75 250 0.0 3.0 0.00 0.00 0.00 81 1009.8
20201124220734 75 122 0.0 6.0 0.00 0.00 0.00 80 1009.8
20201124220613 76 123 1.0 6.0 0.00 0.00 0.00 79 1009.8
20201124220448 76 118 1.0 6.0 0.00 0.00 0.00 79 1009.8
20201124220325 76 156 1.0 6.0 0.00 0.00 0.00 79 1009.8
20201124220202 76 136 0.0 6.0 0.00 0.00 0.00 79 1009.8
20201124220055 76 142 2.0 6.0 0.00 0.00 0.00 78 1009.8
20201124215855 77 221 2.0 5.0 0.00 0.00 0.00 77 1009.8
20201124215725 77 118 1.0 5.0 0.00 0.00 0.00 77 1009.8
20201124215605 77 153 1.0 7.0 0.00 0.00 0.00 76 1009.8
20201124215437 77 130 2.0 7.0 0.00 0.00 0.00 75 1009.8
20201124215323 77 156 1.0 7.0 0.00 0.00 0.00 75 1009.8
20201124215146 77 177 1.0 7.0 0.00 0.00 0.00 75 1009.8
20201124215023 77 83 2.0 7.0 0.00 0.00 0.00 75 1009.8
20201124214905 77 135 2.0 7.0 0.00 0.00 0.00 75 1009.8
20201124214749 77 140 2.0 4.0 0.00 0.00 0.00 75 1009.8
20201124214625 77 150 2.0 4.0 0.00 0.00 0.00 75 1009.8
20201124214525 77 160 1.0 4.0 0.00 0.00 0.00 76 1009.8
20201124214352 77 123 1.0 4.0 0.00 0.00 0.00 76 1009.8
20201124214230 77 148 2.0 4.0 0.00 0.00 0.00 76 1009.8
20201124214050 77 116 1.0 5.0 0.00 0.00 0.00 76 1009.8
20201124213930 77 58 1.0 5.0 0.00 0.00 0.00 76 1009.8
20201124213804 77 117 1.0 5.0 0.00 0.00 0.00 76 1009.8
20201124213645 77 123 1.0 5.0 0.00 0.00 0.00 77 1009.8
20201124213517 77 119 1.0 5.0 0.00 0.00 0.00 77 1009.8
20201124213355 77 153 2.0 5.0 0.00 0.00 0.00 76 1009.8
20201124213222 77 206 1.0 4.0 0.00 0.00 0.00 76 1009.8
20201124213101 77 142 1.0 4.0 0.00 0.00 0.00 77 1009.8
20201124212933 77 84 0.0 4.0 0.00 0.00 0.00 77 1009.8
20201124212825 77 84 0.0 4.0 0.00 0.00 0.00 78 1009.8
20201124212706 77 84 1.0 7.0 0.00 0.00 0.00 77 1009.8
20201124212552 77 209 1.0 7.0 0.00 0.00 0.00 77 1009.8
20201124212424 77 132 1.0 7.0 0.00 0.00 0.00 77 1009.8
20201124212241 77 226 1.0 7.0 0.00 0.00 0.00 78 1009.8
20201124212119 77 189 0.0 7.0 0.00 0.00 0.00 78 1009.8
20201124211957 77 266 2.0 7.0 0.00 0.00 0.00 78 1009.8
20201124211830 77 132 2.0 5.0 0.00 0.00 0.00 78 1009.8
20201124211710 77 151 1.0 5.0 0.00 0.00 0.00 78 1009.8
20201124211529 77 146 1.0 5.0 0.00 0.00 0.00 78 1009.8
20201124211359 77 182 2.0 5.0 0.00 0.00 0.00 78 1009.9
20201124211244 77 138 2.0 5.0 0.00 0.00 0.00 78 1009.9
20201124211120 77 207 1.0 3.0 0.00 0.00 0.00 79 1009.9
20201124211000 77 138 1.0 3.0 0.00 0.00 0.00 79 1009.9
20201124210835 76 95 1.0 2.0 0.00 0.00 0.00 80 1009.9
20201124210656 76 145 1.0 2.0 0.00 0.00 0.00 79 1009.9
20201124210525 76 145 1.0 3.0 0.00 0.00 0.00 80 1009.9
20201124210408 76 103 1.0 3.0 0.00 0.00 0.00 80 1009.9
20201124210242 76 227 1.0 3.0 0.00 0.00 0.00 80 1009.9
20201124210106 76 169 1.0 3.0 0.00 0.00 0.00 80 1009.9
20201124205939 76 153 1.0 3.0 0.00 0.00 0.00 80 1009.9
20201124205821 76 153 1.0 4.0 0.00 0.00 0.00 81 1010.3
20201124205658 76 209 1.0 4.0 0.00 0.00 0.00 81 1010.3
20201124205534 76 258 1.0 4.0 0.00 0.00 0.00 81 1010.3
20201124205430 76 136 0.0 4.0 0.00 0.00 0.00 81 1010.3
20201124205253 76 140 1.0 4.0 0.00 0.00 0.00 80 1010.3
20201124205113 76 127 1.0 4.0 0.00 0.00 0.00 80 1010.3
20201124204948 76 232 1.0 4.0 0.00 0.00 0.00 80 1010.3
20201124204828 76 154 1.0 3.0 0.00 0.00 0.00 80 1010.3
20201124204655 76 235 1.0 3.0 0.00 0.00 0.00 81 1010.3
20201124204538 76 231 1.0 3.0 0.00 0.00 0.00 80 1010.3
20201124204405 76 205 1.0 3.0 0.00 0.00 0.00 79 1010.5
20201124204231 76 97 0.0 4.0 0.00 0.00 0.00 78 1010.5
20201124204104 76 169 0.0 4.0 0.00 0.00 0.00 78 1010.5
20201124203928 76 169 1.0 4.0 0.00 0.00 0.00 77 1010.5
20201124203811 76 135 1.0 5.0 0.00 0.00 0.00 77 1010.5
20201124203647 76 136 1.0 5.0 0.00 0.00 0.00 77 1010.5
20201124203527 77 100 1.0 5.0 0.00 0.00 0.00 76 1010.5
20201124203402 77 128 2.0 5.0 0.00 0.00 0.00 77 1010.5
20201124203246 77 128 1.0 5.0 0.00 0.00 0.00 77 1010.5
20201124203122 77 145 1.0 5.0 0.00 0.00 0.00 77 1010.5
20201124202948 77 329 1.0 5.0 0.00 0.00 0.00 76 1010.5
20201124202830 77 317 1.0 5.0 0.00 0.00 0.00 76 1010.8
20201124202701 78 264 1.0 7.0 0.00 0.00 0.00 76 1010.8
20201124202546 78 149 1.0 7.0 0.00 0.00 0.00 75 1010.8
20201124202422 78 146 0.0 7.0 0.00 0.00 0.00 74 1010.8
20201124202305 78 133 1.0 7.0 0.00 0.00 0.00 73 1010.8
20201124202148 78 134 2.0 7.0 0.00 0.00 0.00 72 1010.8
20201124202019 78 293 1.0 7.0 0.00 0.00 0.00 72 1010.8
20201124201846 78 178 2.0 7.0 0.00 0.00 0.00 72 1010.8
20201124201718 78 262 2.0 5.0 0.00 0.00 0.00 72 1010.8
20201124201553 78 117 2.0 5.0 0.00 0.00 0.00 71 1010.8
20201124201431 78 144 2.0 5.0 0.00 0.00 0.00 71 1010.7
20201124201304 78 157 2.0 5.0 0.00 0.00 0.00 71 1010.7
20201124201131 78 157 1.0 5.0 0.00 0.00 0.00 71 1010.7
20201124201011 78 143 1.0 5.0 0.00 0.00 0.00 71 1010.7
20201124200842 78 145 1.0 5.0 0.00 0.00 0.00 71 1010.7
20201124200719 78 243 1.0 5.0 0.00 0.00 0.00 71 1010.7
20201124200601 78 150 1.0 5.0 0.00 0.00 0.00 71 1010.7
20201124200439 78 151 1.0 3.0 0.00 0.00 0.00 71 1010.7
20201124200304 78 174 1.0 4.0 0.00 0.00 0.00 72 1010.7
20201124200128 78 156 1.0 4.0 0.00 0.00 0.00 72 1010.7
20201124195957 78 98 1.0 4.0 0.00 0.00 0.00 72 1010.7
20201124195835 78 194 1.0 4.0 0.00 0.00 0.00 73 1010.8
20201124195716 78 152 1.0 4.0 0.00 0.00 0.00 73 1010.8
20201124195544 78 138 1.0 4.0 0.00 0.00 0.00 73 1010.8
20201124195426 78 141 1.0 4.0 0.00 0.00 0.00 73 1010.8
20201124195256 78 124 1.0 4.0 0.00 0.00 0.00 73 1010.8
20201124195150 78 149 1.0 4.0 0.00 0.00 0.00 73 1010.8
20201124195032 78 188 1.0 4.0 0.00 0.00 0.00 73 1010.8
20201124194859 78 144 1.0 4.0 0.00 0.00 0.00 73 1010.8
20201124194739 78 208 0.0 3.0 0.00 0.00 0.00 73 1010.8
20201124194624 78 217 0.0 3.0 0.00 0.00 0.00 73 1010.8
20201124194543 78 217 0.0 3.0 0.00 0.00 0.00 73 1010.8
20201124194356 78 202 1.0 3.0 0.00 0.00 0.00 73 1011.0
20201124194223 78 139 1.0 3.0 0.00 0.00 0.00 73 1011.0
20201124194103 78 227 1.0 3.0 0.00 0.00 0.00 73 1011.0
20201124193932 78 225 0.0 3.0 0.00 0.00 0.00 73 1011.0
20201124193805 78 225 1.0 4.0 0.00 0.00 0.00 73 1011.0
20201124193625 78 119 1.0 4.0 0.00 0.00 0.00 73 1011.0
20201124193456 78 234 1.0 4.0 0.00 0.00 0.00 73 1011.0
20201124193325 78 164 1.0 4.0 0.00 0.00 0.00 74 1011.0
20201124193200 78 259 1.0 5.0 0.00 0.00 0.00 74 1011.0
20201124193040 78 128 1.0 6.0 0.00 0.00 0.00 73 1011.0
20201124192916 78 147 1.0 7.0 0.00 0.00 0.00 74 1011.4
20201124192745 77 121 1.0 7.0 0.00 0.00 0.00 73 1011.4
20201124192616 77 242 1.0 7.0 0.00 0.00 0.00 73 1011.4
20201124192453 77 154 1.0 7.0 0.00 0.00 0.00 73 1011.4
20201124192330 77 219 2.0 7.0 0.00 0.00 0.00 73 1011.4
20201124192152 77 173 2.0 7.0 0.00 0.00 0.00 73 1011.4
20201124192034 77 162 2.0 7.0 0.00 0.00 0.00 73 1011.4
20201124191901 77 270 1.0 7.0 0.00 0.00 0.00 74 1011.4
20201124191746 77 185 1.0 7.0 0.00 0.00 0.00 74 1011.4
20201124191625 77 308 2.0 7.0 0.00 0.00 0.00 73 1011.4
20201124191453 78 101 1.0 7.0 0.00 0.00 0.00 73 1011.4
20201124191318 78 249 2.0 7.0 0.00 0.00 0.00 73 1011.4
20201124191229 78 154 2.0 5.0 0.00 0.00 0.00 73 1011.4
20201124191042 78 221 2.0 5.0 0.00 0.00 0.00 73 1011.4
20201124190912 78 288 1.0 5.0 0.00 0.00 0.00 74 1011.4
20201124190752 78 65 1.0 5.0 0.00 0.00 0.00 74 1011.4
20201124190627 77 139 2.0 6.0 0.00 0.00 0.00 75 1011.4
20201124190446 77 130 2.0 6.0 0.00 0.00 0.00 75 1011.4
20201124190319 77 155 2.0 6.0 0.00 0.00 0.00 75 1011.4
20201124190150 77 136 2.0 6.0 0.00 0.00 0.00 76 1011.4
20201124190025 76 137 1.0 6.0 0.00 0.00 0.00 76 1011.4
20201124185855 76 94 2.0 6.0 0.00 0.00 0.00 76 1011.4
20201124185735 76 229 1.0 6.0 0.00 0.00 0.00 76 1011.4
20201124185611 76 148 1.0 7.0 0.00 0.00 0.00 76 1011.4
20201124185452 76 156 1.0 7.0 0.00 0.00 0.00 76 1011.4
20201124185329 76 242 0.0 7.0 0.00 0.00 0.00 76 1011.4
20201124185204 76 161 2.0 7.0 0.00 0.00 0.00 76 1011.4
20201124185028 76 133 2.0 7.0 0.00 0.00 0.00 75 1011.4
20201124184905 76 181 3.0 7.0 0.00 0.00 0.00 76 1011.4
20201124184741 76 210 2.0 6.0 0.00 0.00 0.00 76 1011.4
20201124184616 76 139 2.0 6.0 0.00 0.00 0.00 76 1011.4
20201124184448 76 175 1.0 6.0 0.00 0.00 0.00 77 1011.4
20201124184312 76 121 1.0 6.0 0.00 0.00 0.00 77 1011.9
20201124184153 76 117 2.0 6.0 0.00 0.00 0.00 77 1011.9
20201124184022 77 138 3.0 6.0 0.00 0.00 0.00 77 1011.9
20201124183912 77 159 2.0 5.0 0.00 0.00 0.00 77 1011.9
20201124183743 77 132 2.0 5.0 0.00 0.00 0.00 78 1011.9
20201124183623 77 112 1.0 6.0 0.00 0.00 0.00 78 1011.9
20201124183440 77 117 2.0 5.0 0.00 0.00 0.00 79 1011.9
20201124183325 76 153 1.0 5.0 0.00 0.00 0.00 79 1011.9
20201124183159 76 127 0.0 4.0 0.00 0.00 0.00 80 1011.9
20201124183037 76 98 1.0 5.0 0.00 0.00 0.00 80 1011.9
20201124182922 76 96 1.0 5.0 0.00 0.00 0.00 81 1012.0
20201124182744 76 155 2.0 8.0 0.00 0.00 0.00 80 1012.0
20201124182626 76 140 2.0 8.0 0.00 0.00 0.00 80 1012.0
20201124182512 76 111 2.0 8.0 0.00 0.00 0.00 81 1012.0
20201124182350 76 88 2.0 8.0 0.00 0.00 0.00 81 1012.0
20201124182225 76 137 1.0 8.0 0.00 0.00 0.00 81 1012.0
20201124182103 76 147 2.0 8.0 0.00 0.00 0.00 81 1012.0
20201124181947 76 117 2.0 8.0 0.00 0.00 0.00 81 1012.0
20201124181812 76 112 2.0 7.0 0.00 0.00 0.00 81 1012.0
20201124181647 76 128 2.0 5.0 0.00 0.00 0.00 81 1012.0
20201124181518 76 119 1.0 9.0 0.00 0.00 0.00 81 1012.0
20201124181355 76 106 2.0 9.0 0.00 0.00 0.00 81 1012.5
20201124181233 76 200 2.0 9.0 0.00 0.00 0.00 81 1012.5
20201124181103 76 142 2.0 9.0 0.00 0.00 0.00 81 1012.5
20201124180949 76 128 3.0 9.0 0.00 0.00 0.00 81 1012.5
20201124180827 76 177 3.0 9.0 0.00 0.00 0.00 81 1012.5
20201124180707 76 130 2.0 9.0 0.00 0.00 0.00 81 1012.5
20201124180530 76 94 2.0 5.0 0.00 0.00 0.00 81 1012.5
20201124180356 76 138 1.0 5.0 0.00 0.00 0.00 81 1012.5
20201124180235 76 83 1.0 5.0 0.00 0.00 0.00 81 1012.5
20201124180111 76 132 1.0 4.0 0.00 0.00 0.00 81 1012.5
20201124175942 76 92 1.0 4.0 0.00 0.00 0.00 81 1012.5
20201124175815 76 180 1.0 4.0 0.00 0.00 0.00 81 1013.0
20201124175656 76 142 2.0 4.0 0.00 0.00 0.00 81 1013.0
20201124175525 76 126 1.0 4.0 0.00 0.00 0.00 82 1013.0
20201124175409 76 122 1.0 4.0 0.00 0.00 0.00 82 1013.0
20201124175244 75 125 1.0 4.0 0.00 0.00 0.00 82 1013.0
20201124175120 75 182 1.0 4.0 0.00 0.00 0.00 82 1013.0
20201124174958 75 306 1.0 4.0 0.00 0.00 0.00 82 1013.0
20201124174836 75 134 1.0 5.0 0.00 0.00 0.00 83 1013.0
20201124174656 75 111 1.0 6.0 0.00 0.00 0.00 84 1013.0
20201124174536 75 132 1.0 6.0 0.00 0.00 0.00 83 1013.0
20201124174415 75 128 2.0 6.0 0.00 0.00 0.00 83 1013.4
20201124174256 75 130 1.0 6.0 0.00 0.00 0.00 83 1013.4
20201124174133 75 153 2.0 6.0 0.00 0.00 0.00 82 1013.4
20201124174019 75 129 2.0 8.0 0.00 0.00 0.00 82 1013.4
20201124173853 75 123 1.0 8.0 0.00 0.00 0.00 82 1013.4
20201124173712 75 131 2.0 8.0 0.00 0.00 0.00 82 1013.4
20201124173542 75 130 1.0 8.0 0.00 0.00 0.00 82 1013.4
20201124173422 75 112 1.0 8.0 0.00 0.00 0.00 82 1013.4
20201124173306 75 145 2.0 8.0 0.00 0.00 0.00 82 1013.4
20201124173131 75 141 3.0 8.0 0.00 0.00 0.00 82 1013.4
20201124172955 75 226 2.0 8.0 0.00 0.00 0.00 82 1013.4
20201124172841 75 129 2.0 8.0 0.00 0.00 0.00 82 1013.5
20201124172717 75 96 3.0 7.0 0.00 0.00 0.00 82 1013.5
20201124172551 75 140 2.0 7.0 0.00 0.00 0.00 82 1013.5
20201124172425 75 119 2.0 6.0 0.00 0.00 0.00 82 1013.5
20201124172247 75 86 1.0 6.0 0.00 0.00 0.00 83 1013.5
20201124172132 75 140 0.0 6.0 0.00 0.00 0.00 83 1013.5
20201124172010 75 123 1.0 6.0 0.00 0.00 0.00 83 1013.5
20201124171847 75 119 1.0 6.0 0.00 0.00 0.00 83 1013.5
20201124171722 74 140 2.0 6.0 0.00 0.00 0.00 84 1013.5
20201124171606 74 130 1.0 7.0 0.00 0.00 0.00 84 1013.5
20201124171439 74 127 1.0 7.0 0.00 0.00 0.00 84 1013.5
20201124171309 74 74 1.0 7.0 0.00 0.00 0.00 84 1014.0
20201124171146 74 140 1.0 3.0 0.00 0.00 0.00 84 1014.0
20201124171022 74 118 0.0 3.0 0.00 0.00 0.00 83 1014.0
20201124170858 74 145 0.0 5.0 0.00 0.00 0.00 84 1014.0
20201124170730 74 145 0.0 5.0 0.00 0.00 0.00 84 1014.0
20201124170543 74 128 1.0 5.0 0.00 0.00 0.00 84 1014.0
20201124170427 74 138 1.0 5.0 0.00 0.00 0.00 83 1014.0
20201124170304 74 127 0.0 5.0 0.00 0.00 0.00 83 1014.0
20201124170143 74 169 1.0 5.0 0.00 0.00 0.00 83 1014.0
20201124170026 74 142 1.0 5.0 0.00 0.00 0.00 83 1014.0
20201124165911 74 127 0.0 4.0 0.00 0.00 0.00 83 1014.3
20201124165746 74 100 0.0 4.0 0.00 0.00 0.00 84 1014.3
20201124165614 74 122 1.0 4.0 0.00 0.00 0.00 83 1014.3
20201124165449 74 136 1.0 4.0 0.00 0.00 0.00 83 1014.3
20201124165332 74 88 0.0 3.0 0.00 0.00 0.00 83 1014.3
20201124165202 74 148 1.0 3.0 0.00 0.00 0.00 83 1014.3
20201124165037 74 116 0.0 3.0 0.00 0.00 0.00 83 1014.3
20201124164859 74 132 0.0 3.0 0.00 0.00 0.00 83 1014.3
20201124164747 74 103 0.0 3.0 0.00 0.00 0.00 83 1014.3
20201124164621 74 219 0.0 2.0 0.00 0.00 0.00 83 1014.3
20201124164500 74 126 0.0 2.0 0.00 0.00 0.00 83 1014.3
20201124164334 74 126 0.0 2.0 0.00 0.00 0.00 83 1014.6
20201124164211 74 94 1.0 2.0 0.00 0.00 0.00 83 1014.6
20201124164054 74 156 0.0 2.0 0.00 0.00 0.00 83 1014.6
20201124163913 74 156 0.0 2.0 0.00 0.00 0.00 83 1014.6
20201124163748 74 156 0.0 2.0 0.00 0.00 0.00 83 1014.6
20201124163624 74 156 0.0 2.0 0.00 0.00 0.00 83 1014.6
20201124163506 74 156 0.0 2.0 0.00 0.00 0.00 83 1014.6
20201124163347 74 162 0.0 2.0 0.00 0.00 0.00 83 1014.6
20201124163214 74 136 1.0 2.0 0.00 0.00 0.00 83 1014.6
20201124163049 74 153 1.0 2.0 0.00 0.00 0.00 83 1014.6
20201124162927 74 140 1.0 2.0 0.00 0.00 0.00 83 1015.0
20201124162809 74 153 1.0 2.0 0.00 0.00 0.00 83 1015.0
20201124162650 74 128 0.0 4.0 0.00 0.00 0.00 84 1015.0
20201124162529 74 251 0.0 5.0 0.00 0.00 0.00 84 1015.0
20201124162406 74 252 0.0 5.0 0.00 0.00 0.00 84 1015.0
20201124162249 74 119 0.0 5.0 0.00 0.00 0.00 84 1015.0
20201124162117 74 119 0.0 5.0 0.00 0.00 0.00 84 1015.0
20201124161951 73 143 0.0 5.0 0.00 0.00 0.00 84 1015.0
20201124161825 73 161 1.0 5.0 0.00 0.00 0.00 84 1015.0
20201124161708 73 90 1.0 5.0 0.00 0.00 0.00 85 1015.0
20201124161547 73 121 1.0 2.0 0.00 0.00 0.00 85 1015.0
20201124161429 73 167 1.0 2.0 0.00 0.00 0.00 85 1015.1
20201124161251 73 128 0.0 2.0 0.00 0.00 0.00 85 1015.1
20201124161125 73 103 0.0 3.0 0.00 0.00 0.00 85 1015.1
20201124160956 73 110 0.0 3.0 0.00 0.00 0.00 85 1015.1
20201124160835 73 227 0.0 3.0 0.00 0.00 0.00 86 1015.1
20201124160714 72 117 0.0 3.0 0.00 0.00 0.00 86 1015.1
20201124160533 72 148 0.0 3.0 0.00 0.00 0.00 86 1015.1
20201124160410 72 107 1.0 3.0 0.00 0.00 0.00 86 1015.1
20201124160248 72 71 1.0 3.0 0.00 0.00 0.00 86 1015.1
20201124160122 72 65 1.0 4.0 0.00 0.00 0.00 86 1015.1
20201124155956 72 142 1.0 4.0 0.00 0.00 0.00 86 1015.1
20201124155842 72 118 1.0 4.0 0.00 0.00 0.00 87 1015.4
20201124155705 72 128 0.0 4.0 0.00 0.00 0.00 87 1015.4
20201124155529 71 126 0.0 4.0 0.00 0.00 0.00 87 1015.4
20201124155406 71 130 1.0 4.0 0.00 0.00 0.00 87 1015.4
20201124155236 71 131 1.0 4.0 0.00 0.00 0.00 87 1015.4
20201124155100 71 118 1.0 3.0 0.00 0.00 0.00 87 1015.4
20201124154939 71 126 1.0 3.0 0.00 0.00 0.00 87 1015.4
20201124154811 71 121 1.0 2.0 0.00 0.00 0.00 87 1015.4
20201124154644 71 115 1.0 3.0 0.00 0.00 0.00 88 1015.4
20201124154513 71 158 0.0 3.0 0.00 0.00 0.00 88 1015.4
20201124154330 71 160 0.0 3.0 0.00 0.00 0.00 88 1015.5
20201124154211 70 116 0.0 3.0 0.00 0.00 0.00 88 1015.5
20201124154044 70 118 0.0 3.0 0.00 0.00 0.00 88 1015.5
20201124153913 70 118 0.0 3.0 0.00 0.00 0.00 88 1015.5
20201124153732 70 99 0.0 2.0 0.00 0.00 0.00 88 1015.5
20201124153615 70 99 0.0 2.0 0.00 0.00 0.00 88 1015.5
20201124153438 70 98 0.0 1.0 0.00 0.00 0.00 88 1015.5
20201124153316 69 98 0.0 1.0 0.00 0.00 0.00 88 1015.5
20201124153201 69 98 0.0 1.0 0.00 0.00 0.00 88 1015.5
20201124153030 69 98 0.0 1.0 0.00 0.00 0.00 88 1015.5
20201124152856 69 98 0.0 1.0 0.00 0.00 0.00 88 1015.4
20201124152728 69 98 0.0 1.0 0.00 0.00 0.00 88 1015.4
20201124152602 69 98 0.0 1.0 0.00 0.00 0.00 88 1015.4
20201124152440 69 98 0.0 1.0 0.00 0.00 0.00 88 1015.4
20201124152319 69 98 0.0 1.0 0.00 0.00 0.00 88 1015.4
20201124152146 69 98 0.0 1.0 0.00 0.00 0.00 88 1015.4
20201124152025 69 98 0.0 1.0 0.00 0.00 0.00 88 1015.4
20201124151851 69 98 0.0 1.0 0.00 0.00 0.00 88 1015.4
20201124151727 69 98 0.0 1.0 0.00 0.00 0.00 88 1015.4
20201124151607 69 98 0.0 1.0 0.00 0.00 0.00 88 1015.4
20201124151443 69 98 0.0 1.0 0.00 0.00 0.00 88 1015.4
20201124151313 68 98 0.0 1.0 0.00 0.00 0.00 88 1015.1
20201124151153 68 98 0.0 1.0 0.00 0.00 0.00 88 1015.1
20201124151024 68 98 0.0 1.0 0.00 0.00 0.00 88 1015.1
20201124150851 68 98 0.0 1.0 0.00 0.00 0.00 88 1015.1
20201124150729 68 98 0.0 1.0 0.00 0.00 0.00 89 1015.1
20201124150558 68 98 0.0 1.0 0.00 0.00 0.00 88 1015.1
20201124150423 68 98 0.0 1.0 0.00 0.00 0.00 88 1015.1
20201124150301 68 98 0.0 1.0 0.00 0.00 0.00 88 1015.1
20201124150133 68 102 0.0 1.0 0.00 0.00 0.00 88 1015.1
20201124150029 68 102 0.0 1.0 0.00 0.00 0.00 88 1015.1
20201124145837 68 102 0.0 1.0 0.00 0.00 0.00 88 1015.4
20201124145718 68 102 0.0 1.0 0.00 0.00 0.00 88 1015.4
20201124145548 68 94 0.0 1.0 0.00 0.00 0.00 88 1015.4
20201124145422 68 94 0.0 1.0 0.00 0.00 0.00 88 1015.4
20201124145254 68 94 0.0 1.0 0.00 0.00 0.00 88 1015.4
20201124145118 68 94 0.0 1.0 0.00 0.00 0.00 88 1015.4
20201124144957 67 92 0.0 1.0 0.00 0.00 0.00 88 1015.4
20201124144830 67 92 0.0 1.0 0.00 0.00 0.00 88 1015.4
20201124144719 67 92 0.0 0.0 0.00 0.00 0.00 88 1015.4
20201124144552 67 92 0.0 1.0 0.00 0.00 0.00 88 1015.4
20201124144429 67 92 0.0 1.0 0.00 0.00 0.00 88 1015.2
20201124144254 67 92 0.0 1.0 0.00 0.00 0.00 88 1015.2
20201124144131 67 92 0.0 1.0 0.00 0.00 0.00 88 1015.2
20201124144018 67 92 0.0 1.0 0.00 0.00 0.00 89 1015.2
20201124143835 67 92 0.0 1.0 0.00 0.00 0.00 89 1015.2
20201124143719 67 96 0.0 1.0 0.00 0.00 0.00 89 1015.2
20201124143540 67 96 0.0 1.0 0.00 0.00 0.00 89 1015.2
20201124143416 67 96 0.0 1.0 0.00 0.00 0.00 88 1015.2
20201124143254 67 96 0.0 1.0 0.00 0.00 0.00 88 1015.2
20201124143130 67 94 0.0 1.0 0.00 0.00 0.00 88 1015.2
20201124143032 67 93 0.0 1.0 0.00 0.00 0.00 88 1015.2
20201124142847 67 93 0.0 2.0 0.00 0.00 0.00 89 1015.1
20201124142724 67 93 0.0 2.0 0.00 0.00 0.00 89 1015.1
20201124142557 67 93 0.0 2.0 0.00 0.00 0.00 89 1015.1
20201124142415 67 92 0.0 2.0 0.00 0.00 0.00 89 1015.1
20201124142249 67 88 0.0 2.0 0.00 0.00 0.00 89 1015.1
20201124142127 67 88 0.0 2.0 0.00 0.00 0.00 89 1015.1
20201124142004 67 88 0.0 1.0 0.00 0.00 0.00 89 1015.1
20201124141834 67 51 0.0 1.0 0.00 0.00 0.00 89 1015.1
20201124141712 67 46 0.0 2.0 0.00 0.00 0.00 89 1015.1
20201124141554 67 46 0.0 2.0 0.00 0.00 0.00 89 1015.1
20201124141440 67 103 0.0 2.0 0.00 0.00 0.00 89 1015.1
20201124141313 67 103 0.0 2.0 0.00 0.00 0.00 89 1015.0
20201124141151 67 103 0.0 2.0 0.00 0.00 0.00 89 1015.0
20201124141034 66 103 0.0 2.0 0.00 0.00 0.00 89 1015.0
20201124140900 66 98 0.0 2.0 0.00 0.00 0.00 89 1015.0
20201124140732 66 105 1.0 2.0 0.00 0.00 0.00 89 1015.0
20201124140616 66 115 0.0 2.0 0.00 0.00 0.00 89 1015.0
20201124140506 66 114 0.0 4.0 0.00 0.00 0.00 89 1015.0
20201124140335 66 126 0.0 4.0 0.00 0.00 0.00 89 1015.0
20201124140220 66 126 0.0 4.0 0.00 0.00 0.00 89 1015.0
20201124140042 66 125 0.0 4.0 0.00 0.00 0.00 89 1015.0
20201124135901 66 123 0.0 4.0 0.00 0.00 0.00 89 1015.1
20201124135733 66 130 1.0 4.0 0.00 0.00 0.00 89 1015.1
20201124135614 66 67 0.0 4.0 0.00 0.00 0.00 89 1015.1
20201124135442 66 67 1.0 4.0 0.00 0.00 0.00 89 1015.1
20201124135308 66 69 0.0 4.0 0.00 0.00 0.00 89 1015.1
20201124135148 66 113 1.0 4.0 0.00 0.00 0.00 89 1015.1
20201124135020 66 107 1.0 4.0 0.00 0.00 0.00 89 1015.1
20201124134851 66 131 0.0 2.0 0.00 0.00 0.00 90 1015.1
20201124134714 66 134 0.0 2.0 0.00 0.00 0.00 90 1015.1
20201124134552 66 135 0.0 2.0 0.00 0.00 0.00 90 1015.1
20201124134434 66 117 0.0 3.0 0.00 0.00 0.00 90 1015.1
20201124134312 66 117 0.0 3.0 0.00 0.00 0.00 90 1015.0
20201124134145 65 136 0.0 3.0 0.00 0.00 0.00 90 1015.0
20201124134028 65 134 0.0 3.0 0.00 0.00 0.00 90 1015.0
20201124133850 65 134 0.0 3.0 0.00 0.00 0.00 90 1015.0
20201124133731 65 140 1.0 3.0 0.00 0.00 0.00 90 1015.0
20201124133615 65 105 1.0 3.0 0.00 0.00 0.00 90 1015.0
20201124133511 65 124 0.0 3.0 0.00 0.00 0.00 90 1015.0
20201124133325 65 140 0.0 3.0 0.00 0.00 0.00 90 1015.0
20201124133202 65 117 0.0 3.0 0.00 0.00 0.00 90 1015.0
20201124132934 65 55 0.0 3.0 0.00 0.00 0.00 91 1015.0
20201124132809 65 5 0.0 3.0 0.00 0.00 0.00 91 1015.0
20201124132645 65 355 0.0 3.0 0.00 0.00 0.00 90 1015.0
20201124132517 64 355 0.0 3.0 0.00 0.00 0.00 90 1015.0
20201124132347 64 117 0.0 3.0 0.00 0.00 0.00 90 1015.0
20201124132206 64 117 0.0 3.0 0.00 0.00 0.00 90 1015.0
20201124132046 64 115 0.0 2.0 0.00 0.00 0.00 90 1015.0
20201124131927 64 115 0.0 2.0 0.00 0.00 0.00 90 1015.0
20201124131804 64 115 0.0 2.0 0.00 0.00 0.00 90 1015.0
20201124131636 64 115 0.0 2.0 0.00 0.00 0.00 90 1015.0
20201124131512 64 113 0.0 1.0 0.00 0.00 0.00 90 1015.0
20201124131335 64 113 0.0 1.0 0.00 0.00 0.00 90 1015.0
20201124131207 64 113 0.0 1.0 0.00 0.00 0.00 90 1015.0
20201124131047 64 113 0.0 1.0 0.00 0.00 0.00 90 1015.0
20201124130917 64 113 0.0 1.0 0.00 0.00 0.00 90 1015.0
20201124130800 64 113 0.0 1.0 0.00 0.00 0.00 90 1015.0
20201124130620 64 113 0.0 3.0 0.00 0.00 0.00 90 1015.0
20201124130451 64 113 0.0 3.0 0.00 0.00 0.00 90 1015.0
20201124130326 64 113 0.0 3.0 0.00 0.00 0.00 90 1015.0
20201124130206 64 113 0.0 3.0 0.00 0.00 0.00 90 1015.0
20201124130047 64 113 0.0 5.0 0.00 0.00 0.00 90 1015.0
20201124125927 64 117 1.0 5.0 0.00 0.00 0.00 90 1014.9
20201124125747 64 106 1.0 5.0 0.00 0.00 0.00 90 1014.9
20201124125630 64 98 1.0 5.0 0.00 0.00 0.00 90 1014.9
20201124125511 64 111 0.0 5.0 0.00 0.00 0.00 90 1014.9
20201124125336 64 101 1.0 5.0 0.00 0.00 0.00 90 1014.9
20201124125222 64 72 1.0 3.0 0.00 0.00 0.00 91 1014.9
20201124125059 64 123 0.0 2.0 0.00 0.00 0.00 91 1014.9
20201124124923 64 136 0.0 2.0 0.00 0.00 0.00 91 1014.9
20201124124759 63 76 0.0 2.0 0.00 0.00 0.00 91 1014.9
20201124124640 63 103 0.0 2.0 0.00 0.00 0.00 91 1014.9
20201124124525 63 103 0.0 3.0 0.00 0.00 0.00 91 1014.9
20201124124402 63 132 0.0 3.0 0.00 0.00 0.00 91 1015.0
20201124124211 63 132 0.0 3.0 0.00 0.00 0.00 91 1015.0
20201124124053 63 132 0.0 3.0 0.00 0.00 0.00 91 1015.0
20201124123934 63 132 0.0 3.0 0.00 0.00 0.00 91 1015.0
20201124123808 63 145 0.0 3.0 0.00 0.00 0.00 91 1015.0
20201124123639 63 123 0.0 1.0 0.00 0.00 0.00 91 1015.0
20201124123456 63 123 0.0 1.0 0.00 0.00 0.00 91 1015.0
20201124123344 63 123 0.0 1.0 0.00 0.00 0.00 91 1015.0
20201124123209 63 123 0.0 1.0 0.00 0.00 0.00 91 1015.0
20201124123052 63 123 0.0 1.0 0.00 0.00 0.00 91 1015.0
20201124122926 63 123 0.0 1.0 0.00 0.00 0.00 91 1015.1
20201124122741 63 123 0.0 1.0 0.00 0.00 0.00 91 1015.1
20201124122616 63 123 0.0 1.0 0.00 0.00 0.00 91 1015.1
20201124122451 63 101 0.0 1.0 0.00 0.00 0.00 91 1015.1
20201124122327 63 101 0.0 1.0 0.00 0.00 0.00 91 1015.1
20201124122213 63 101 0.0 1.0 0.00 0.00 0.00 91 1015.1
20201124122107 63 101 0.0 1.0 0.00 0.00 0.00 91 1015.1
20201124121929 63 101 0.0 1.0 0.00 0.00 0.00 91 1015.1
20201124121753 63 101 0.0 1.0 0.00 0.00 0.00 90 1015.1
20201124121621 63 101 0.0 1.0 0.00 0.00 0.00 90 1015.1
20201124121510 63 101 0.0 1.0 0.00 0.00 0.00 90 1015.1
20201124121346 63 101 0.0 1.0 0.00 0.00 0.00 90 1015.1
20201124121226 63 101 0.0 1.0 0.00 0.00 0.00 90 1015.1
20201124121113 63 101 0.0 1.0 0.00 0.00 0.00 91 1015.1
20201124120928 63 101 0.0 1.0 0.00 0.00 0.00 91 1015.1
20201124120752 63 101 0.0 1.0 0.00 0.00 0.00 91 1015.1
20201124120627 62 101 0.0 1.0 0.00 0.00 0.00 91 1015.1
20201124120452 62 101 0.0 1.0 0.00 0.00 0.00 91 1015.1
20201124120315 62 101 0.0 1.0 0.00 0.00 0.00 91 1015.1
20201124120153 62 101 0.0 1.0 0.00 0.00 0.00 91 1015.1
20201124120033 62 101 0.0 1.0 0.00 0.00 0.00 91 1015.1
20201124115908 62 101 0.0 1.0 0.00 0.00 0.00 91 1015.1
20201124115740 62 101 0.0 1.0 0.00 0.00 0.00 91 1015.1
20201124115629 62 101 0.0 1.0 0.00 0.00 0.00 91 1015.1
20201124115449 62 101 0.0 0.0 0.00 0.00 0.00 91 1015.1
20201124115331 62 101 0.0 1.0 0.00 0.00 0.00 91 1015.1
20201124115209 62 101 0.0 1.0 0.00 0.00 0.00 91 1015.1
20201124115052 62 101 0.0 1.0 0.00 0.00 0.00 91 1015.1
20201124114934 62 101 0.0 1.0 0.00 0.00 0.00 91 1015.1
20201124114807 62 101 0.0 1.0 0.00 0.00 0.00 91 1015.1
20201124114650 62 101 0.0 1.0 0.00 0.00 0.00 91 1015.1
20201124114519 62 101 0.0 1.0 0.00 0.00 0.00 91 1015.1
20201124114358 62 101 0.0 1.0 0.00 0.00 0.00 91 1015.1
20201124114231 62 101 0.0 1.0 0.00 0.00 0.00 91 1015.1
20201124114118 62 101 0.0 1.0 0.00 0.00 0.00 91 1015.1
20201124113957 62 101 0.0 0.0 0.00 0.00 0.00 91 1015.1
20201124113841 62 101 0.0 0.0 0.00 0.00 0.00 91 1015.1
20201124113707 62 101 0.0 0.0 0.00 0.00 0.00 91 1015.1
20201124113538 62 101 0.0 0.0 0.00 0.00 0.00 91 1015.1
20201124113415 62 101 0.0 0.0 0.00 0.00 0.00 91 1015.1
20201124113254 62 101 0.0 1.0 0.00 0.00 0.00 91 1015.1
20201124113140 62 101 0.0 1.0 0.00 0.00 0.00 91 1015.1
20201124113019 62 101 0.0 1.0 0.00 0.00 0.00 91 1015.1
20201124112838 62 101 0.0 1.0 0.00 0.00 0.00 91 1015.0
20201124112719 62 101 0.0 1.0 0.00 0.00 0.00 91 1015.0
20201124112552 62 101 0.0 1.0 0.00 0.00 0.00 91 1015.0
20201124112429 62 101 0.0 1.0 0.00 0.00 0.00 91 1015.0
20201124112311 62 101 0.0 1.0 0.00 0.00 0.00 91 1015.0
20201124112140 62 101 0.0 1.0 0.00 0.00 0.00 91 1015.0
20201124112019 62 101 0.0 0.0 0.00 0.00 0.00 91 1015.0
20201124111847 62 101 0.0 0.0 0.00 0.00 0.00 91 1015.0
20201124111728 62 101 0.0 0.0 0.00 0.00 0.00 91 1015.0
20201124111601 62 101 0.0 0.0 0.00 0.00 0.00 91 1015.0
20201124111434 62 101 0.0 0.0 0.00 0.00 0.00 91 1015.0
20201124111255 62 101 0.0 0.0 0.00 0.00 0.00 91 1015.0
20201124111132 62 101 0.0 0.0 0.00 0.00 0.00 91 1015.0
20201124111019 62 101 0.0 0.0 0.00 0.00 0.00 91 1015.0
20201124110845 62 101 0.0 0.0 0.00 0.00 0.00 91 1015.0
20201124110711 62 101 0.0 0.0 0.00 0.00 0.00 91 1015.0
20201124110543 62 101 0.0 0.0 0.00 0.00 0.00 91 1015.0
20201124110418 62 101 0.0 0.0 0.00 0.00 0.00 91 1015.0
20201124110255 62 101 0.0 0.0 0.00 0.00 0.00 91 1015.0
20201124110140 62 101 0.0 0.0 0.00 0.00 0.00 91 1015.0
20201124110026 62 101 0.0 0.0 0.00 0.00 0.00 91 1015.0
20201124105843 62 101 0.0 0.0 0.00 0.00 0.00 91 1015.0
20201124105719 61 101 0.0 0.0 0.00 0.00 0.00 91 1015.0
20201124105554 61 101 0.0 0.0 0.00 0.00 0.00 91 1015.0
20201124105436 61 101 0.0 1.0 0.00 0.00 0.00 91 1015.0
20201124105318 61 101 0.0 1.0 0.00 0.00 0.00 91 1015.0
20201124105159 62 101 0.0 1.0 0.00 0.00 0.00 91 1015.0